Skip Page Navigation
NASA JPL Caltech
NASA Logo - Jet Propulsion Laboratory + View the NASA Portal
+ Center for Near-Earth Object Studies
JPL Home Earth Solar System Stars & Galaxies Technology
JPL Solar System Dynamics
BODIES ORBITS EPHEMERIDES TOOLS PHYSICAL DATA DISCOVERY FAQ SITE MAP
IMPORTANT: The SSD Announcement email list is now available. Major changes are coming in the near future, including possible hostname and/or URL changes. To be notified of such changes, subscribe to this email list.

Please visit this page for more details.


JPL Small-Body Database Browser
Search: [ help ]  
324299 (2006 DC77)
Classification: Main-belt Asteroid          SPK-ID: 2324299
Ephemeris | Orbit Diagram | Orbital Elements | Mission Design | Physical Parameters | Discovery Circumstances | Close-Approach Data ]

[ show orbit diagram ]
Orbital Elements at Epoch 2458600.5 (2019-Apr-27.0) TDB
Reference: JPL 14 (heliocentric ecliptic J2000)
 Element Value Uncertainty (1-sigma)   Units 
e .2275193642560683 7.3199e-08  
a 3.162304533776986 6.0899e-08 au
q 2.442819016667964 2.2195e-07 au
i 12.59783902429135 7.9278e-06 deg
node 152.7878076507609 3.7367e-05 deg
peri 187.1811356656084 4.0859e-05 deg
M 314.3496684591332 2.0869e-05 deg
tp 2458860.962615994797
(2020-Jan-12.46261599)
0.00012403 TDB
period 2054.016665228065
5.62
5.9334e-05
1.624e-07
d
yr
n .17526634817251 5.0629e-09 deg/d
Q 3.881790050886009 7.4755e-08 au
  Orbit Determination Parameters
   # obs. used (total)      177  
   data-arc span      5765 days (15.78 yr)  
   first obs. used      2003-09-22  
   last obs. used      2019-07-05  
   planetary ephem.      DE431  
   SB-pert. ephem.      SB431-N16  
   condition code      0  
   norm. resid. RMS      .59645  
   source      ORB  
   producer      Otto Matic  
   solution date      2019-Sep-24 06:13:11  

Additional Information
 Earth MOID = 1.4336 au 
 Jupiter MOID = 1.52279 au 
 T_jup = 3.127 
[ show covariance matrix ]

Ephemeris | Orbit Diagram | Orbital Elements | Mission Design | Physical Parameters | Discovery Circumstances | Close-Approach Data ]

Physical Parameter Table
Parameter Symbol Value Units Sigma Reference Notes
absolute magnitude H 15.7   n/a MPO450271  
diameter diameter 5.252 km 0.563 urn:nasa:pds:neowise_diameters_albedos::2.0[mainbelt] (http://adsabs.harvard.edu/abs/2011ApJ...741...68M)  
geometric albedo albedo 0.040   0.023 urn:nasa:pds:neowise_diameters_albedos::2.0[mainbelt] (http://adsabs.harvard.edu/abs/2011ApJ...741...68M)  

324299 (2006 DC77)          Discovered 2006-Feb-24 by Spacewatch at Kitt Peak
Reference: 20120406/Numbers.arcLast Updated: 2012-04-09

[ show close-approach data ]
Alternate Designations
 2006 DC77 = 2008 OV6 
Ephemeris | Orbit Diagram | Orbital Elements | Mission Design | Physical Parameters | Discovery Circumstances | Close-Approach Data ]
ABOUT SSD CREDITS/AWARDS PRIVACY/COPYRIGHT GLOSSARY LINKS
FirstGov
(server date/time)  
NASA Home Page
Site Manager:   Ryan S. Park
Webmaster  Alan B. Chamberlin